Location: Olsztyn
(53.7767°N, 20.4765°E)
Time: 03:42:44
(UTC+01:00)

Transit 2A Rocket - All Passes

Search period start: 23 January 2022 00:00
Search period end: 02 February 2022 00:00
Orbit: 584 x 918 km, 66.7° (Epoch: 22 January)

Date Brightness Start Highest point End Pass type
(mag) Time Alt. Az. Time Alt. Az. Time Alt. Az.
23 Jan - 00:59:40 10° NW 01:04:52 29° NNE 01:09:47 10° E night (unlit)
23 Jan - 02:42:36 10° NW 02:48:31 70° NE 02:53:55 10° SE night (unlit)
23 Jan - 04:25:48 10° NW 04:30:44 30° WSW 04:35:18 10° S visible
23 Jan - 17:25:55 10° SE 17:28:48 14° ESE 17:31:42 10° ENE visible
23 Jan - 19:04:20 10° SSW 19:10:18 58° ESE 19:16:17 10° NE visible
23 Jan - 20:47:17 10° WSW 20:53:12 47° NW 20:59:02 10° NE visible
23 Jan - 22:32:13 10° WNW 22:37:13 25° NNW 22:42:05 10° NE night (unlit)
24 Jan - 00:16:43 10° NW 00:21:42 26° NNE 00:26:26 10° ENE night (unlit)
24 Jan - 01:59:51 10° NW 02:05:38 51° NE 02:10:58 10° ESE night (unlit)
24 Jan - 03:42:47 10° NW 03:48:17 45° WSW 03:53:19 10° S night (unlit)
24 Jan - 18:22:09 10° S 18:27:45 40° ESE 18:33:23 10° NE visible
24 Jan - 20:04:12 10° WSW 20:10:17 62° NW 20:16:18 10° NE visible
24 Jan - 21:48:48 10° WNW 21:54:02 28° NNW 21:59:08 10° NE visible
24 Jan - 23:33:39 10° NW 23:38:29 24° N 23:43:06 10° ENE night (unlit)
25 Jan - 01:17:05 10° NW 01:22:40 40° NNE 01:27:50 10° E night (unlit)
25 Jan - 02:59:55 10° NW 03:05:43 68° SW 03:10:59 10° SSE night (unlit)
25 Jan - 04:44:14 10° WNW 04:47:12 15° WSW 04:50:04 10° SW night (unlit)
25 Jan - 17:40:19 10° SSE 17:45:18 27° ESE 17:50:19 10° NE visible
25 Jan - 19:21:18 10° SW 19:27:27 83° NW 19:33:34 10° NE visible
25 Jan - 21:05:24 10° W 21:10:55 33° NNW 21:16:17 10° NE visible
25 Jan - 22:50:27 10° NW 22:55:15 23° N 22:59:52 10° NE visible
26 Jan - 00:34:16 10° NW 00:39:36 32° NNE 00:44:35 10° E night (unlit)
26 Jan - 02:17:08 10° NW 02:23:02 85° NE 02:28:23 10° SE night (unlit)
26 Jan - 04:00:36 10° WNW 04:04:57 23° WSW 04:09:01 10° SSW night (unlit)
26 Jan - 16:59:00 10° SSE 17:02:59 18° ESE 17:06:58 10° ENE visible
26 Jan - 18:38:39 10° SSW 18:44:44 72° SE 18:50:48 10° NE visible
26 Jan - 20:22:05 10° WSW 20:27:51 40° NNW 20:33:30 10° NE visible
26 Jan - 22:07:08 10° WNW 22:12:01 24° N 22:16:43 10° NE visible
26 Jan - 23:51:23 10° NW 23:56:28 28° NNE 00:01:16 10° ENE night (unlit)
27 Jan - 01:34:22 10° NW 01:40:13 62° NE 01:45:34 10° ESE night (unlit)
27 Jan - 03:17:27 10° NW 03:22:35 35° WSW 03:27:19 10° S night (unlit)
27 Jan - 16:18:53 10° ESE 16:20:45 11° E 16:22:37 10° E daylight
27 Jan - 17:56:14 10° SSW 18:02:07 51° ESE 18:07:59 10° NE visible
27 Jan - 19:38:53 10° WSW 19:44:53 52° NW 19:50:46 10° NE visible
27 Jan - 21:23:44 10° WNW 21:28:48 26° NNW 21:33:43 10° NE visible
27 Jan - 23:08:23 10° NW 23:13:16 25° N 23:17:55 10° ENE visible
28 Jan - 00:51:37 10° NW 00:57:18 46° NE 01:02:33 10° ESE night (unlit)
28 Jan - 02:34:30 10° NW 02:40:05 52° WSW 02:45:11 10° SSE night (unlit)
28 Jan - 04:20:24 10° W 04:21:19 10° W 04:22:14 10° WSW night (unlit)
28 Jan - 17:14:10 10° S 17:19:36 35° ESE 17:25:02 10° NE visible
28 Jan - 18:55:53 10° SW 19:02:00 69° NW 19:08:02 10° NE visible
28 Jan - 20:40:19 10° W 20:45:38 30° NNW 20:50:48 10° NE visible
28 Jan - 22:25:16 10° NW 22:30:03 23° N 22:34:37 10° NE visible
29 Jan - 00:08:50 10° NW 00:14:18 36° NNE 00:19:22 10° E night (unlit)
29 Jan - 01:51:39 10° NW 01:57:29 77° SW 02:02:45 10° SSE night (unlit)
29 Jan - 03:35:36 10° WNW 03:39:07 17° WSW 03:42:29 10° SW night (unlit)
29 Jan - 16:32:30 10° SSE 16:37:12 24° ESE 16:41:54 10° ENE daylight
29 Jan - 18:13:04 10° SW 18:19:12 88° SE 18:25:18 10° NE visible
29 Jan - 19:56:56 10° W 20:02:32 35° NNW 20:07:59 10° NE visible
29 Jan - 21:42:01 10° NW 21:46:49 23° N 21:51:25 10° NE visible
29 Jan - 23:26:00 10° NW 23:31:12 30° NNE 23:36:04 10° E visible
30 Jan - 01:08:53 10° NW 01:14:45 76° NE 01:20:04 10° SE night (unlit)
30 Jan - 02:52:12 10° NW 02:56:50 27° WSW 03:01:08 10° SSW night (unlit)
30 Jan - 15:51:28 10° SE 15:54:54 16° ESE 15:58:19 10° ENE daylight
30 Jan - 17:30:29 10° SSW 17:36:31 64° SE 17:42:31 10° NE visible
30 Jan - 19:13:39 10° WSW 19:19:31 44° NW 19:25:13 10° NE visible
30 Jan - 20:58:39 10° WNW 21:03:35 25° N 21:08:19 10° NE visible
30 Jan - 22:43:05 10° NW 22:48:02 26° NNE 22:52:44 10° ENE visible
31 Jan - 00:26:07 10° NW 00:31:54 55° NE 00:37:10 10° ESE night (unlit)
31 Jan - 02:09:08 10° NW 02:14:25 40° WSW 02:19:16 10° S night (unlit)
31 Jan - 16:48:11 10° S 16:53:56 44° ESE 16:59:40 10° NE visible
31 Jan - 18:30:31 10° WSW 18:36:34 57° NW 18:42:29 10° NE visible
31 Jan - 20:15:15 10° WNW 20:20:23 27° NNW 20:25:21 10° NE visible
31 Jan - 22:00:02 10° NW 22:04:50 24° N 22:09:24 10° ENE visible
31 Jan - 23:43:22 10° NW 23:48:56 42° NNE 23:54:04 10° ESE night (unlit)
01 Feb - 01:26:13 10° NW 01:31:53 60° WSW 01:37:01 10° SSE night (unlit)
01 Feb - 03:11:01 10° WNW 03:13:15 13° W 03:15:25 10° SW night (unlit)
01 Feb - 16:06:15 10° S 16:11:27 30° ESE 16:16:39 10° NE daylight
01 Feb - 17:47:33 10° SW 17:53:43 77° NW 17:59:45 10° NE visible
01 Feb - 19:31:50 10° W 19:37:14 31° NNW 19:42:29 10° NE visible
01 Feb - 21:16:52 10° NW 21:21:36 23° N 21:26:08 10° NE visible
01 Feb - 23:00:34 10° NW 23:05:54 33° NNE 23:10:52 10° E visible
